Overview Statistics Trail Chart Weather Telemetry Raw packets
 

This is the latest recevied weather packets stored in our database for station/object K5OLV. If no packets are shown the sender has not sent any weather packets the latest 10 day(s).

<< 58 59 60 61 62 63 64 >>
Time Temp. Humidity Pressure Rain* Wind** Luminosity Snow
1788220088 25.56° C 89% 1017.3 hPa 0 mm - 11 W/m² -
1788219787 26.11° C 87% 1017.5 hPa 0 mm - 12 W/m² -
1788219483 26.11° C 87% 1017.3 hPa 0 mm - 16 W/m² -
1788219178 26.67° C 86% 1017.7 hPa 0 mm - 20 W/m² -
1788218873 26.67° C 84% 1017.3 hPa 0 mm - 24 W/m² -
1788218570 26.67° C 85% 1017.4 hPa 0 mm - 27 W/m² -
1788218265 27.22° C 83% 1017.3 hPa 0 mm - 28 W/m² -
1788217962 27.22° C 83% 1017.2 hPa 0 mm - 31 W/m² -
1788217656 27.22° C 81% 1017.8 hPa 0 mm - 33 W/m² -
1788217351 27.78° C 80% 1018 hPa 0 mm - 35 W/m² -
1788217050 27.78° C 78% 1017.7 hPa 0 mm - 38 W/m² -
1788216746 28.33° C 77% 1017.7 hPa 0 mm - 49 W/m² -
1788216441 28.89° C 73% 1017.9 hPa 0 mm - 69 W/m² -
1788216136 28.89° C 71% 1017.9 hPa 0 mm - 123 W/m² -
1788215831 28.89° C 69% 1017.9 hPa 0 mm - 70 W/m² -
1788215528 29.44° C 70% 1017.8 hPa 0 mm - 60 W/m² -
1788215224 29.44° C 65% 1017.8 hPa 0 mm - 60 W/m² -
1788214919 29.44° C 67% 1017.8 hPa 0 mm - 93 W/m² -
1788214614 30° C 69% 1017.7 hPa 0 mm - 120 W/m² -
1788214310 30° C 65% 1017.8 hPa 0 mm - 80 W/m² -
1788214004 30° C 64% 1017.7 hPa 0 mm - 239 W/m² -
1788213699 30.56° C 65% 1018 hPa 0 mm - 262 W/m² -
1788213395 30.56° C 64% 1017.8 hPa 0 mm - 265 W/m² -
1788213090 30.56° C 65% 1018 hPa 0 mm - 289 W/m² -
1788212788 30.56° C 68% 1017.9 hPa 0 mm - 301 W/m² -

* Rain latest hour (hover to see other rain measurements)
** Current wind speed in m/s (hover to see current wind gust speed)